Weather History for Thunder Bay, ON

Change the Weather History Date:

Tuesday, August 6, 2013

  Actual Average Record
Temperature  
Mean Temperature 60 °F -  
Max Temperature 68 °F 35 °F 93 °F (2001)
Min Temperature 51 °F 27 °F 41 °F (2002)
Degree Days  
Heating Degree Days 6    
Growing Degree Days 10 (Base 50)    
Moisture  
Dew Point 58 °F    
Average Humidity 93    
Maximum Humidity 100    
Minimum Humidity 73    
Precipitation  
Precipitation 0.00 in 0.03 in - ()
Sea Level Pressure  
Sea Level Pressure 29.76 in    
Wind  
Wind Speed 3 mph ()    
Max Wind Speed 12 mph    
Max Gust Speed -    
Visibility 8.5 miles    
Events Rain    
Averages and records for this station are not official NWS values.
T = Trace of Precipitation, MM = Missing Value Source: Averaged Metar Reports

Daily Weather History Graph

Daily Weather History Graph

Search for Another Location

Airport:

Trip Planner

Search our weather history database for the weather conditions in past years. The results will help you decide how hot, cold, wet, or windy it might be!

Date:

Astronomy

Aug. 06, 2013 Rise Set
Actual Time 6:39 AM EDT 9:26 PM EDT
Civil Twilight 6:03 AM EDT 10:01 PM EDT
Nautical Twilight 5:17 AM EDT 10:47 PM EDT
Astronomical Twilight 4:22 AM EDT 11:41 PM EDT
Moon 6:35 AM EDT (8/6) 8:53 PM EDT (8/6)
Length of Visible Light 15h 58m
Length of Day
14h 46m
Waning Crescent, 0% of the Moon is Illuminated
Aug 6
Waning Crescent
Aug 6
New
Aug 14
First Quarter
Aug 20
Full
Aug 28
Last Quarter

Hourly Weather History & Observations

Time (EDT) Temp. Dew Point Humidity Pressure Visibility Wind Dir Wind Speed Gust Speed Precip Events Conditions
12:00 AM 57.2 °F 55.4 °F 94% 29.81 in 15.0 mi NE 2.3 mph - N/A   Mostly Cloudy
1:00 AM 57.2 °F 55.4 °F 94% 29.80 in 15.0 mi Calm Calm - N/A   Mostly Cloudy
2:00 AM 57.2 °F 55.4 °F 94% 29.79 in 15.0 mi NE 3.5 mph - N/A   Overcast
3:00 AM 55.4 °F 55.4 °F 100% 29.79 in 15.0 mi North 2.3 mph - N/A   Scattered Clouds
4:00 AM 55.4 °F 53.6 °F 94% 29.77 in 15.0 mi Calm Calm - N/A   Mostly Cloudy
5:00 AM 53.6 °F 51.8 °F 94% 29.75 in 15.0 mi Calm Calm - N/A   Partly Cloudy
6:00 AM 51.8 °F 51.8 °F 100% 29.77 in 10.0 mi Variable 2.3 mph - N/A   Overcast
7:00 AM 55.4 °F 53.6 °F 94% 29.77 in 2.0 mi SW 4.6 mph - N/A   Overcast
7:20 AM 55.4 °F 53.6 °F 94% 29.77 in 3.0 mi WSW 3.5 mph - N/A   Overcast
8:00 AM 55.4 °F 55.4 °F 100% 29.76 in 6.0 mi SSW 2.3 mph - N/A   Overcast
8:46 AM 57.2 °F 55.4 °F 94% 29.77 in 10.0 mi West 2.3 mph - N/A   Overcast
9:00 AM 59.0 °F 57.2 °F 94% 29.77 in 10.0 mi Calm Calm - N/A   Overcast
10:00 AM 60.8 °F 57.2 °F 88% 29.78 in 10.0 mi SW 3.5 mph - N/A   Overcast
10:51 AM 64.4 °F 59.0 °F 83% 29.75 in 15.0 mi Calm Calm - N/A   Mostly Cloudy
11:00 AM 64.4 °F 59.0 °F 83% 29.75 in 20.0 mi Variable 2.3 mph - N/A   Mostly Cloudy
12:00 PM 68.0 °F 59.0 °F 73% 29.75 in 15.0 mi SE 4.6 mph - N/A   Mostly Cloudy
1:00 PM 66.2 °F 60.8 °F 83% 29.75 in 20.0 mi East 9.2 mph - N/A   Mostly Cloudy
2:00 PM 68.0 °F 60.8 °F 78% 29.73 in 15.0 mi ENE 10.4 mph - N/A   Mostly Cloudy
2:40 PM 64.4 °F 59.0 °F 83% 29.74 in 15.0 mi NE 8.1 mph - N/A Rain Light Rain Showers
3:00 PM 62.6 °F 59.0 °F 88% 29.75 in 10.0 mi NE 5.8 mph - N/A Rain Light Rain Showers
4:00 PM 59.0 °F 59.0 °F 100% 29.76 in 6.0 mi NNE 11.5 mph - N/A Rain Light Rain Showers
4:12 PM 59.0 °F 57.2 °F 94% 29.76 in 2.0 mi NNE 5.8 mph - N/A Rain Rain Showers
4:28 PM 59.0 °F 59.0 °F 100% 29.77 in 1.5 mi ENE 6.9 mph - N/A Rain Rain Showers
4:40 PM 59.0 °F 59.0 °F 100% 29.77 in 2.5 mi East 6.9 mph - N/A Rain Light Rain Showers
4:42 PM 59.0 °F 59.0 °F 100% 29.77 in 3.0 mi East 8.1 mph - N/A Rain Light Rain Showers
5:00 PM 59.0 °F 57.2 °F 94% 29.76 in 5.0 mi ENE 9.2 mph - N/A Rain Light Rain Showers
5:41 PM 59.0 °F 59.0 °F 100% 29.76 in 2.5 mi NE 5.8 mph - N/A Rain Light Rain Showers
6:00 PM 59.0 °F 59.0 °F 100% 29.76 in 2.0 mi North 6.9 mph - N/A Rain Light Rain Showers
6:15 PM 59.0 °F 59.0 °F 100% 29.76 in 4.0 mi ENE 5.8 mph - N/A Rain Light Rain Showers
6:26 PM 60.8 °F 59.0 °F 94% 29.75 in 5.0 mi ENE 5.8 mph - N/A Rain Light Rain Showers
7:00 PM 60.8 °F 59.0 °F 94% 29.76 in 8.0 mi NNE 2.3 mph - N/A Rain Light Rain Showers
7:11 PM 60.8 °F 59.0 °F 94% 29.76 in 8.0 mi NNE 2.3 mph - N/A   Mostly Cloudy
8:00 PM 60.8 °F 59.0 °F 94% 29.77 in 10.0 mi SSE 3.5 mph - N/A   Overcast
9:00 PM 60.8 °F 60.8 °F 100% 29.76 in 3.0 mi NNE 2.3 mph - N/A   Overcast
10:00 PM 60.8 °F 59.0 °F 94% 29.76 in 3.0 mi NW 3.5 mph - N/A   Overcast
10:13 PM 60.8 °F 59.0 °F 94% 29.77 in 3.0 mi NNW 3.5 mph - N/A Rain Light Rain
10:40 PM 60.8 °F 59.0 °F 94% 29.76 in 4.0 mi South 2.3 mph - N/A   Overcast
11:00 PM 60.8 °F 59.0 °F 94% 29.75 in 4.0 mi Calm Calm - N/A   Overcast
11:40 PM 60.8 °F 59.0 °F 94% 29.75 in 5.0 mi WSW 2.3 mph - N/A   Mostly Cloudy